Location: Boiro
(42.6475°N, 8.8834°W)
Time: 18:04:35
(UTC+01:00)

Transit 2A - Pass Details

Date: 02 December 2021
Orbit: 591 x 967 km, 66.7° (Epoch: 20 January)

Event Time Altitude Azimuth Distance (km) Brightness Sun altitude
Rises 12:55:36 0° 308° (NW) 3,655 9.1 25.0°
Reaches altitude 10° 13:00:56 10° 271° (W) 2,662 8.8 25.1°
Maximum altitude 13:01:57 10° 262° (W) 2,619 8.9 25.1°
Drops below altitude 10° 13:02:58 10° 252° (WSW) 2,635 9.0 25.1°
Sets 13:08:06 0° 214° (SW) 3,484 10.2 25.2°
